Year,Month,Day,Hour,Minute,Value (Times are PST for windgust in km/hr)
2014,10,22,00,00,40.20
2014,10,22,00,01,33.80
2014,10,22,00,02,35.40
2014,10,22,00,03,35.40
2014,10,22,00,04,29.00
2014,10,22,00,05,46.70
2014,10,22,00,06,53.10
2014,10,22,00,07,40.20
2014,10,22,00,08,49.90
2014,10,22,00,09,38.60
2014,10,22,00,10,32.20
2014,10,22,00,11,43.50
2014,10,22,00,12,30.60
2014,10,22,00,13,30.60
2014,10,22,00,14,29.00
2014,10,22,00,15,40.20
2014,10,22,00,16,27.40
2014,10,22,00,17,37.00
2014,10,22,00,18,29.00
2014,10,22,00,19,25.70
2014,10,22,00,20,25.70
2014,10,22,00,21,33.80
2014,10,22,00,22,38.60
2014,10,22,00,23,32.20
2014,10,22,00,24,41.80
2014,10,22,00,25,35.40
2014,10,22,00,26,25.70
2014,10,22,00,27,38.60
2014,10,22,00,28,41.80
2014,10,22,00,29,45.10
2014,10,22,00,30,35.40
2014,10,22,00,31,32.20
2014,10,22,00,32,22.50
2014,10,22,00,33,33.80
2014,10,22,00,34,32.20
2014,10,22,00,35,41.80
2014,10,22,00,36,40.20
2014,10,22,00,37,30.60
2014,10,22,00,38,33.80
2014,10,22,00,39,38.60
2014,10,22,00,40,32.20
2014,10,22,00,41,29.00
2014,10,22,00,42,25.70
2014,10,22,00,43,27.40
2014,10,22,00,44,27.40
2014,10,22,00,45,33.80
2014,10,22,00,46,25.70
2014,10,22,00,47,46.70
2014,10,22,00,48,35.40
2014,10,22,00,49,51.50
2014,10,22,00,50,41.80
2014,10,22,00,51,45.10
2014,10,22,00,52,27.40
2014,10,22,00,53,29.00
2014,10,22,00,54,35.40
2014,10,22,00,55,40.20
2014,10,22,00,56,46.70
2014,10,22,00,57,41.80
2014,10,22,00,58,30.60
2014,10,22,00,59,46.70
2014,10,22,01,00,35.40
2014,10,22,01,01,38.60
2014,10,22,01,02,40.20
2014,10,22,01,03,38.60
2014,10,22,01,04,37.00
2014,10,22,01,05,38.60
2014,10,22,01,06,37.00
2014,10,22,01,07,37.00
2014,10,22,01,08,29.00
2014,10,22,01,09,30.60
2014,10,22,01,10,32.20
2014,10,22,01,11,43.50
2014,10,22,01,12,40.20
2014,10,22,01,13,35.40
2014,10,22,01,14,25.70
2014,10,22,01,15,25.70
2014,10,22,01,16,35.40
2014,10,22,01,17,40.20
2014,10,22,01,18,40.20
2014,10,22,01,19,37.00
2014,10,22,01,20,27.40
2014,10,22,01,21,35.40
2014,10,22,01,22,32.20
2014,10,22,01,23,33.80
2014,10,22,01,24,32.20
2014,10,22,01,25,37.00
2014,10,22,01,26,37.00
2014,10,22,01,27,24.20
2014,10,22,01,28,37.00
2014,10,22,01,29,35.40
2014,10,22,01,30,38.60
2014,10,22,01,31,33.80
2014,10,22,01,32,48.30
2014,10,22,01,33,40.20
2014,10,22,01,34,32.20
2014,10,22,01,35,41.80
2014,10,22,01,36,35.40
2014,10,22,01,37,29.00
2014,10,22,01,38,30.60
2014,10,22,01,39,22.50
2014,10,22,01,40,35.40
2014,10,22,01,41,25.70
2014,10,22,01,42,40.20
2014,10,22,01,43,35.40
2014,10,22,01,44,25.70
2014,10,22,01,45,27.40
2014,10,22,01,46,27.40
2014,10,22,01,47,24.20
2014,10,22,01,48,27.40
2014,10,22,01,49,20.90
2014,10,22,01,50,29.00
2014,10,22,01,51,27.40
2014,10,22,01,52,25.70
2014,10,22,01,53,20.90
2014,10,22,01,54,29.00
2014,10,22,01,55,40.20
2014,10,22,01,56,24.20
2014,10,22,01,57,20.90
2014,10,22,01,58,37.00
2014,10,22,01,59,29.00
2014,10,22,02,00,29.00
2014,10,22,02,01,30.60
2014,10,22,02,02,33.80
2014,10,22,02,03,32.20
2014,10,22,02,04,24.20
2014,10,22,02,05,32.20
2014,10,22,02,06,30.60
2014,10,22,02,07,17.70
2014,10,22,02,08,20.90
2014,10,22,02,09,24.20
2014,10,22,02,10,25.70
2014,10,22,02,11,29.00
2014,10,22,02,12,22.50
2014,10,22,02,13,33.80
2014,10,22,02,14,29.00
2014,10,22,02,15,22.50
2014,10,22,02,16,29.00
2014,10,22,02,17,19.30
2014,10,22,02,18,32.20
2014,10,22,02,19,29.00
2014,10,22,02,20,30.60
2014,10,22,02,21,22.50
2014,10,22,02,22,27.40
2014,10,22,02,23,20.90
2014,10,22,02,24,27.40
2014,10,22,02,25,20.90
2014,10,22,02,26,20.90
2014,10,22,02,27,22.50
2014,10,22,02,28,32.20
2014,10,22,02,29,27.40
2014,10,22,02,30,25.70
2014,10,22,02,31,32.20
2014,10,22,02,32,22.50
2014,10,22,02,33,25.70
2014,10,22,02,34,25.70
2014,10,22,02,35,27.40
2014,10,22,02,36,17.70
2014,10,22,02,37,29.00
2014,10,22,02,38,22.50
2014,10,22,02,39,24.20
2014,10,22,02,40,29.00
2014,10,22,02,41,22.50
2014,10,22,02,42,24.20
2014,10,22,02,43,22.50
2014,10,22,02,44,16.10
2014,10,22,02,45,17.70
2014,10,22,02,46,16.10
2014,10,22,02,47,24.20
2014,10,22,02,48,17.70
2014,10,22,02,49,19.30
2014,10,22,02,50,20.90
2014,10,22,02,51,19.30
2014,10,22,02,52,12.90
2014,10,22,02,53,19.30
2014,10,22,02,54,9.60
2014,10,22,02,55,22.50
2014,10,22,02,56,22.50
2014,10,22,02,57,24.20
2014,10,22,02,58,20.90
2014,10,22,02,59,17.70
2014,10,22,03,00,14.50
2014,10,22,03,01,8.10
2014,10,22,03,02,17.70
2014,10,22,03,03,11.30
2014,10,22,03,04,11.30
2014,10,22,03,05,19.30
2014,10,22,03,06,11.30
2014,10,22,03,07,14.50
2014,10,22,03,08,11.30
2014,10,22,03,09,9.60
2014,10,22,03,10,9.60
2014,10,22,03,11,11.30
2014,10,22,03,12,20.90
2014,10,22,03,13,8.10
2014,10,22,03,14,11.30
2014,10,22,03,15,24.20
2014,10,22,03,16,11.30
2014,10,22,03,17,9.60
2014,10,22,03,18,11.30
2014,10,22,03,19,8.10
2014,10,22,03,20,6.40
2014,10,22,03,21,11.30
2014,10,22,03,22,9.60
2014,10,22,03,23,4.80
2014,10,22,03,24,11.30
2014,10,22,03,25,9.60
2014,10,22,03,26,4.80
2014,10,22,03,27,8.10
2014,10,22,03,28,4.80
2014,10,22,03,29,3.20
2014,10,22,03,30,4.80
2014,10,22,03,31,3.20
2014,10,22,03,32,3.20
2014,10,22,03,33,4.80
2014,10,22,03,34,4.80
2014,10,22,03,35,6.40
2014,10,22,03,36,3.20
2014,10,22,03,37,4.80
2014,10,22,03,38,3.20
2014,10,22,03,39,4.80
2014,10,22,03,40,3.20
2014,10,22,03,41,3.20
2014,10,22,03,42,3.20
2014,10,22,03,43,3.20
2014,10,22,03,44,1.60
2014,10,22,03,45,1.60
2014,10,22,03,46,3.20
2014,10,22,03,47,3.20
2014,10,22,03,48,3.20
2014,10,22,03,50,1.60
2014,10,22,03,55,1.60
2014,10,22,03,56,1.60
2014,10,22,03,57,1.60
2014,10,22,03,59,1.60
2014,10,22,04,00,1.60
2014,10,22,04,03,3.20
2014,10,22,04,04,4.80
2014,10,22,04,05,3.20
2014,10,22,04,06,3.20
2014,10,22,04,07,6.40
2014,10,22,04,08,3.20
2014,10,22,04,09,3.20
2014,10,22,04,10,4.80
2014,10,22,04,11,4.80
2014,10,22,04,12,4.80
2014,10,22,04,13,4.80
2014,10,22,04,14,4.80
2014,10,22,04,15,4.80
2014,10,22,04,16,6.40
2014,10,22,04,17,6.40
2014,10,22,04,18,4.80
2014,10,22,04,19,3.20
2014,10,22,04,20,3.20
2014,10,22,04,21,1.60
2014,10,22,04,22,1.60
2014,10,22,04,23,4.80
2014,10,22,04,24,4.80
2014,10,22,04,25,6.40
2014,10,22,04,26,4.80
2014,10,22,04,27,4.80
2014,10,22,04,28,3.20
2014,10,22,04,29,3.20
2014,10,22,04,30,1.60
2014,10,22,04,31,1.60
2014,10,22,04,32,3.20
2014,10,22,04,33,3.20
2014,10,22,04,34,3.20
2014,10,22,04,35,3.20
2014,10,22,04,36,3.20
2014,10,22,04,37,4.80
2014,10,22,04,38,4.80
2014,10,22,04,39,4.80
2014,10,22,04,40,4.80
2014,10,22,04,41,3.20
2014,10,22,04,42,3.20
2014,10,22,04,43,1.60
2014,10,22,04,44,1.60
2014,10,22,04,45,3.20
2014,10,22,04,46,1.60
2014,10,22,04,47,1.60
2014,10,22,04,48,1.60
2014,10,22,04,49,1.60
2014,10,22,04,50,1.60
2014,10,22,04,51,1.60
2014,10,22,04,53,1.60
2014,10,22,04,54,1.60
2014,10,22,04,55,3.20
2014,10,22,04,56,4.80
2014,10,22,04,57,4.80
2014,10,22,04,58,6.40
2014,10,22,04,59,6.40
2014,10,22,05,00,4.80
2014,10,22,05,01,4.80
2014,10,22,05,02,4.80
2014,10,22,05,03,4.80
2014,10,22,05,04,3.20
2014,10,22,05,05,3.20
2014,10,22,05,06,1.60
2014,10,22,05,07,1.60
2014,10,22,05,09,1.60
2014,10,22,05,10,1.60
2014,10,22,05,11,1.60
2014,10,22,05,12,3.20
2014,10,22,05,13,4.80
2014,10,22,05,14,3.20
2014,10,22,05,15,1.60
2014,10,22,05,16,3.20
2014,10,22,05,17,1.60
2014,10,22,05,18,4.80
2014,10,22,05,19,6.40
2014,10,22,05,20,6.40
2014,10,22,05,21,4.80
2014,10,22,05,22,3.20
2014,10,22,05,23,3.20
2014,10,22,05,24,1.60
2014,10,22,05,25,1.60
2014,10,22,05,26,4.80
2014,10,22,05,27,4.80
2014,10,22,05,28,4.80
2014,10,22,05,29,4.80
2014,10,22,05,30,3.20
2014,10,22,05,31,3.20
2014,10,22,05,32,4.80
2014,10,22,05,33,4.80
2014,10,22,05,34,4.80
2014,10,22,05,35,3.20
2014,10,22,05,36,3.20
2014,10,22,05,37,1.60
2014,10,22,05,39,1.60
2014,10,22,05,40,1.60
2014,10,22,05,44,1.60
2014,10,22,05,45,1.60
2014,10,22,05,46,1.60
2014,10,22,05,47,3.20
2014,10,22,05,48,3.20
2014,10,22,05,49,3.20
2014,10,22,05,50,1.60
2014,10,22,05,51,1.60
2014,10,22,05,52,4.80
2014,10,22,05,53,4.80
2014,10,22,05,54,4.80
2014,10,22,05,55,3.20
2014,10,22,05,56,1.60
2014,10,22,05,57,1.60
2014,10,22,05,58,1.60
2014,10,22,05,59,1.60
2014,10,22,06,00,1.60
2014,10,22,06,01,3.20
2014,10,22,06,02,4.80
2014,10,22,06,03,3.20
2014,10,22,06,04,1.60
2014,10,22,06,05,3.20
2014,10,22,06,06,1.60
2014,10,22,06,07,1.60
2014,10,22,06,08,1.60
2014,10,22,06,09,1.60
2014,10,22,06,10,3.20
2014,10,22,06,11,1.60
2014,10,22,06,12,1.60
2014,10,22,06,14,1.60
2014,10,22,06,15,1.60
2014,10,22,06,53,1.60
2014,10,22,06,54,1.60
2014,10,22,06,57,1.60
2014,10,22,06,58,1.60
2014,10,22,06,59,1.60
2014,10,22,07,00,1.60
2014,10,22,07,01,1.60
2014,10,22,07,02,1.60
2014,10,22,07,03,3.20
2014,10,22,07,04,1.60
2014,10,22,07,05,1.60
2014,10,22,07,06,1.60
2014,10,22,07,07,1.60
2014,10,22,07,11,1.60
2014,10,22,07,12,1.60
2014,10,22,07,14,1.60
2014,10,22,07,15,1.60
2014,10,22,07,16,1.60
2014,10,22,07,17,1.60
2014,10,22,07,18,3.20
2014,10,22,07,19,1.60
2014,10,22,07,23,1.60
2014,10,22,07,25,1.60
2014,10,22,07,26,1.60
2014,10,22,07,27,1.60
2014,10,22,07,28,1.60
2014,10,22,07,29,1.60
2014,10,22,07,35,1.60
2014,10,22,07,48,1.60
2014,10,22,07,49,1.60
2014,10,22,07,50,1.60
2014,10,22,07,51,1.60
2014,10,22,07,52,1.60
2014,10,22,07,53,1.60
2014,10,22,07,56,1.60
2014,10,22,07,57,1.60
2014,10,22,07,58,1.60
2014,10,22,07,59,1.60
2014,10,22,08,00,1.60
2014,10,22,08,01,1.60
2014,10,22,08,02,1.60
2014,10,22,08,03,1.60
2014,10,22,08,05,1.60
2014,10,22,08,06,1.60
2014,10,22,08,07,1.60
2014,10,22,08,08,1.60
2014,10,22,08,15,1.60
2014,10,22,08,25,1.60
2014,10,22,08,26,1.60
2014,10,22,08,27,1.60
2014,10,22,08,28,1.60
2014,10,22,08,29,1.60
2014,10,22,08,30,1.60
2014,10,22,08,31,1.60
2014,10,22,08,32,1.60
2014,10,22,08,33,1.60
2014,10,22,08,34,1.60
2014,10,22,08,35,3.20
2014,10,22,08,36,4.80
2014,10,22,08,37,4.80
2014,10,22,08,38,3.20
2014,10,22,08,39,3.20
2014,10,22,08,40,1.60
2014,10,22,08,44,1.60
2014,10,22,08,45,1.60
2014,10,22,08,46,1.60
2014,10,22,08,47,1.60
2014,10,22,08,48,1.60
2014,10,22,08,49,1.60
2014,10,22,08,50,1.60
2014,10,22,08,51,1.60
2014,10,22,08,52,1.60
2014,10,22,09,04,1.60
2014,10,22,09,05,1.60
2014,10,22,09,06,1.60
2014,10,22,09,12,3.20
2014,10,22,09,13,3.20
2014,10,22,09,14,3.20
2014,10,22,09,15,3.20
2014,10,22,09,16,1.60
2014,10,22,09,17,1.60
2014,10,22,09,18,3.20
2014,10,22,09,19,3.20
2014,10,22,09,20,3.20
2014,10,22,09,21,3.20
2014,10,22,09,22,3.20
2014,10,22,09,23,4.80
2014,10,22,09,24,4.80
2014,10,22,09,25,4.80
2014,10,22,09,26,4.80
2014,10,22,09,27,4.80
2014,10,22,09,28,3.20
2014,10,22,09,29,3.20
2014,10,22,09,30,4.80
2014,10,22,09,31,4.80
2014,10,22,09,32,4.80
2014,10,22,09,33,4.80
2014,10,22,09,34,3.20
2014,10,22,09,35,3.20
2014,10,22,09,36,3.20
2014,10,22,09,37,3.20
2014,10,22,09,38,3.20
2014,10,22,09,39,1.60
2014,10,22,09,40,1.60
2014,10,22,09,41,3.20
2014,10,22,09,42,3.20
2014,10,22,09,43,3.20
2014,10,22,09,44,4.80
2014,10,22,09,45,6.40
2014,10,22,09,46,6.40
2014,10,22,09,47,6.40
2014,10,22,09,48,4.80
2014,10,22,09,49,4.80
2014,10,22,09,50,3.20
2014,10,22,09,51,1.60
2014,10,22,10,03,1.60
2014,10,22,10,04,1.60
2014,10,22,10,06,3.20
2014,10,22,10,07,3.20
2014,10,22,10,08,3.20
2014,10,22,10,09,3.20
2014,10,22,10,10,3.20
2014,10,22,10,11,3.20
2014,10,22,10,12,1.60
2014,10,22,10,13,1.60
2014,10,22,10,14,1.60
2014,10,22,10,15,1.60
2014,10,22,10,16,1.60
2014,10,22,10,17,1.60
2014,10,22,10,18,1.60
2014,10,22,10,19,1.60
2014,10,22,10,20,1.60
2014,10,22,10,21,4.80
2014,10,22,10,22,6.40
2014,10,22,10,23,4.80
2014,10,22,10,24,4.80
2014,10,22,10,25,1.60
2014,10,22,10,26,3.20
2014,10,22,10,27,3.20
2014,10,22,10,28,3.20
2014,10,22,10,29,1.60
2014,10,22,10,30,1.60
2014,10,22,10,31,3.20
2014,10,22,10,32,1.60
2014,10,22,10,33,1.60
2014,10,22,10,34,1.60
2014,10,22,10,35,1.60
2014,10,22,10,36,1.60
2014,10,22,10,37,3.20
2014,10,22,10,38,1.60
2014,10,22,10,39,3.20
2014,10,22,10,40,1.60
2014,10,22,10,41,1.60
2014,10,22,10,42,1.60
2014,10,22,10,43,3.20
2014,10,22,10,44,3.20
2014,10,22,10,45,1.60
2014,10,22,10,47,4.80
2014,10,22,10,48,4.80
2014,10,22,10,49,4.80
2014,10,22,10,50,6.40
2014,10,22,10,51,6.40
2014,10,22,10,52,3.20
2014,10,22,10,53,1.60
2014,10,22,10,54,1.60
2014,10,22,10,55,1.60
2014,10,22,10,56,3.20
2014,10,22,10,57,3.20
2014,10,22,10,58,3.20
2014,10,22,10,59,3.20
2014,10,22,11,00,1.60
2014,10,22,11,01,1.60
2014,10,22,11,02,1.60
2014,10,22,11,03,3.20
2014,10,22,11,04,1.60
2014,10,22,11,05,3.20
2014,10,22,11,06,3.20
2014,10,22,11,07,3.20
2014,10,22,11,08,3.20
2014,10,22,11,09,3.20
2014,10,22,11,10,1.60
2014,10,22,11,11,3.20
2014,10,22,11,12,3.20
2014,10,22,11,13,3.20
2014,10,22,11,14,3.20
2014,10,22,11,15,3.20
2014,10,22,11,16,1.60
2014,10,22,11,17,1.60
2014,10,22,11,18,1.60
2014,10,22,11,19,3.20
2014,10,22,11,20,3.20
2014,10,22,11,21,1.60
2014,10,22,11,22,3.20
2014,10,22,11,23,1.60
2014,10,22,11,24,1.60
2014,10,22,11,26,1.60
2014,10,22,11,27,1.60
2014,10,22,11,28,1.60
2014,10,22,11,29,3.20
2014,10,22,11,30,1.60
2014,10,22,11,31,1.60
2014,10,22,11,32,1.60
2014,10,22,11,42,1.60
2014,10,22,11,43,1.60
2014,10,22,11,45,1.60
2014,10,22,11,51,1.60
2014,10,22,11,52,3.20
2014,10,22,11,53,3.20
2014,10,22,11,54,3.20
2014,10,22,11,55,3.20
2014,10,22,11,56,1.60
2014,10,22,11,57,3.20
2014,10,22,11,58,4.80
2014,10,22,11,59,4.80
2014,10,22,12,00,4.80
2014,10,22,12,01,4.80
2014,10,22,12,02,1.60
2014,10,22,12,03,1.60
2014,10,22,12,07,1.60
2014,10,22,12,08,1.60
2014,10,22,12,10,1.60
2014,10,22,12,11,1.60
2014,10,22,12,12,1.60
2014,10,22,12,13,1.60
2014,10,22,12,14,1.60
2014,10,22,12,15,1.60
2014,10,22,12,16,3.20
2014,10,22,12,17,1.60
2014,10,22,12,18,3.20
2014,10,22,12,19,1.60
2014,10,22,12,20,1.60
2014,10,22,12,22,1.60
2014,10,22,12,23,1.60
2014,10,22,12,24,1.60
2014,10,22,12,25,3.20
2014,10,22,12,26,4.80
2014,10,22,12,27,4.80
2014,10,22,12,28,4.80
2014,10,22,12,29,4.80
2014,10,22,12,30,1.60
2014,10,22,12,31,1.60
2014,10,22,12,32,1.60
2014,10,22,12,33,3.20
2014,10,22,12,34,1.60
2014,10,22,12,35,3.20
2014,10,22,12,36,1.60
2014,10,22,12,39,1.60
2014,10,22,12,40,1.60
2014,10,22,12,41,1.60
2014,10,22,12,42,1.60
2014,10,22,12,43,1.60
2014,10,22,12,45,1.60
2014,10,22,12,49,1.60
2014,10,22,12,50,1.60
2014,10,22,12,51,3.20
2014,10,22,12,52,3.20
2014,10,22,12,53,4.80
2014,10,22,12,54,4.80
2014,10,22,12,55,4.80
2014,10,22,12,56,4.80
2014,10,22,12,57,6.40
2014,10,22,12,58,4.80
2014,10,22,12,59,6.40
2014,10,22,13,00,4.80
2014,10,22,13,01,4.80
2014,10,22,13,02,4.80
2014,10,22,13,03,4.80
2014,10,22,13,04,4.80
2014,10,22,13,05,4.80
2014,10,22,13,06,3.20
2014,10,22,13,07,3.20
2014,10,22,13,08,4.80
2014,10,22,13,09,3.20
2014,10,22,13,10,3.20
2014,10,22,13,11,3.20
2014,10,22,13,12,3.20
2014,10,22,13,13,1.60
2014,10,22,13,14,1.60
2014,10,22,13,15,1.60
2014,10,22,13,16,3.20
2014,10,22,13,17,4.80
2014,10,22,13,18,4.80
2014,10,22,13,19,3.20
2014,10,22,13,20,3.20
2014,10,22,13,21,1.60
2014,10,22,13,22,3.20
2014,10,22,13,23,3.20
2014,10,22,13,24,3.20
2014,10,22,13,25,1.60
2014,10,22,13,26,1.60
2014,10,22,13,27,3.20
2014,10,22,13,28,3.20
2014,10,22,13,29,4.80
2014,10,22,13,30,3.20
2014,10,22,13,31,4.80
2014,10,22,13,32,3.20
2014,10,22,13,33,3.20
2014,10,22,13,34,3.20
2014,10,22,13,35,1.60
2014,10,22,13,36,3.20
2014,10,22,13,37,3.20
2014,10,22,13,38,3.20
2014,10,22,13,39,1.60
2014,10,22,13,40,1.60
2014,10,22,13,41,3.20
2014,10,22,13,42,3.20
2014,10,22,13,43,1.60
2014,10,22,13,44,1.60
2014,10,22,13,45,1.60
2014,10,22,13,46,1.60
2014,10,22,13,47,1.60
2014,10,22,13,48,1.60
2014,10,22,13,49,1.60
2014,10,22,13,50,1.60
2014,10,22,13,51,1.60
2014,10,22,13,52,3.20
2014,10,22,13,53,1.60
2014,10,22,13,54,1.60
2014,10,22,13,55,1.60
2014,10,22,13,57,1.60
2014,10,22,13,58,1.60
2014,10,22,13,59,3.20
2014,10,22,14,00,1.60
2014,10,22,14,01,1.60
2014,10,22,14,09,3.20
2014,10,22,14,10,1.60
2014,10,22,14,11,1.60
2014,10,22,14,12,3.20
2014,10,22,14,13,3.20
2014,10,22,14,14,3.20
2014,10,22,14,15,3.20
2014,10,22,14,16,3.20
2014,10,22,14,17,1.60
2014,10,22,14,19,1.60
2014,10,22,14,20,1.60
2014,10,22,14,21,1.60
2014,10,22,14,22,3.20
2014,10,22,14,23,3.20
2014,10,22,14,24,3.20
2014,10,22,14,25,1.60
2014,10,22,14,26,1.60
2014,10,22,14,27,4.80
2014,10,22,14,28,3.20
2014,10,22,14,29,3.20
2014,10,22,14,30,4.80
2014,10,22,14,31,4.80
2014,10,22,14,32,4.80
2014,10,22,14,33,4.80
2014,10,22,14,34,4.80
2014,10,22,14,35,3.20
2014,10,22,14,36,1.60
2014,10,22,14,37,1.60
2014,10,22,14,38,1.60
2014,10,22,14,39,1.60
2014,10,22,14,40,3.20
2014,10,22,14,41,3.20
2014,10,22,14,42,3.20
2014,10,22,14,43,1.60
2014,10,22,14,44,1.60
2014,10,22,14,45,3.20
2014,10,22,14,46,4.80
2014,10,22,14,47,4.80
2014,10,22,14,48,4.80
2014,10,22,14,49,6.40
2014,10,22,14,50,4.80
2014,10,22,14,51,3.20
2014,10,22,14,52,4.80
2014,10,22,14,53,4.80
2014,10,22,14,54,4.80
2014,10,22,14,55,6.40
2014,10,22,14,56,6.40
2014,10,22,14,57,6.40
2014,10,22,14,58,3.20
2014,10,22,14,59,4.80
2014,10,22,15,00,4.80
2014,10,22,15,01,4.80
2014,10,22,15,02,1.60
2014,10,22,15,03,3.20
2014,10,22,15,04,3.20
2014,10,22,15,05,4.80
2014,10,22,15,06,4.80
2014,10,22,15,07,4.80
2014,10,22,15,08,4.80
2014,10,22,15,09,3.20
2014,10,22,15,10,6.40
2014,10,22,15,11,8.10
2014,10,22,15,12,4.80
2014,10,22,15,13,3.20
2014,10,22,15,14,4.80
2014,10,22,15,15,4.80
2014,10,22,15,16,3.20
2014,10,22,15,17,4.80
2014,10,22,15,18,4.80
2014,10,22,15,19,4.80
2014,10,22,15,20,3.20
2014,10,22,15,21,3.20
2014,10,22,15,22,9.60
2014,10,22,15,23,9.60
2014,10,22,15,24,8.10
2014,10,22,15,25,6.40
2014,10,22,15,26,8.10
2014,10,22,15,27,6.40
2014,10,22,15,28,6.40
2014,10,22,15,29,4.80
2014,10,22,15,30,4.80
2014,10,22,15,31,4.80
2014,10,22,15,32,4.80
2014,10,22,15,33,4.80
2014,10,22,15,34,6.40
2014,10,22,15,35,6.40
2014,10,22,15,36,8.10
2014,10,22,15,37,8.10
2014,10,22,15,38,8.10
2014,10,22,15,39,8.10
2014,10,22,15,40,4.80
2014,10,22,15,41,6.40
2014,10,22,15,42,4.80
2014,10,22,15,43,3.20
2014,10,22,15,44,3.20
2014,10,22,15,45,3.20
2014,10,22,15,46,1.60
2014,10,22,15,47,1.60
2014,10,22,15,48,3.20
2014,10,22,15,49,3.20
2014,10,22,15,50,4.80
2014,10,22,15,51,6.40
2014,10,22,15,52,4.80
2014,10,22,15,53,4.80
2014,10,22,15,54,3.20
2014,10,22,15,55,1.60
2014,10,22,15,58,1.60
2014,10,22,15,59,1.60
2014,10,22,16,00,1.60
2014,10,22,16,01,1.60
2014,10,22,16,02,1.60
2014,10,22,16,03,1.60
2014,10,22,16,04,1.60
2014,10,22,16,05,1.60
2014,10,22,16,06,1.60
2014,10,22,16,07,1.60
2014,10,22,16,08,1.60
2014,10,22,16,09,3.20
2014,10,22,16,10,4.80
2014,10,22,16,11,6.40
2014,10,22,16,12,6.40
2014,10,22,16,13,6.40
2014,10,22,16,14,4.80
2014,10,22,16,15,6.40
2014,10,22,16,16,6.40
2014,10,22,16,17,4.80
2014,10,22,16,18,1.60
2014,10,22,16,19,1.60
2014,10,22,16,20,1.60
2014,10,22,16,21,3.20
2014,10,22,16,22,1.60
2014,10,22,16,23,3.20
2014,10,22,16,24,3.20
2014,10,22,16,25,1.60
2014,10,22,16,26,3.20
2014,10,22,16,27,3.20
2014,10,22,16,28,3.20
2014,10,22,16,29,3.20
2014,10,22,16,30,3.20
2014,10,22,16,31,6.40
2014,10,22,16,32,6.40
2014,10,22,16,33,4.80
2014,10,22,16,34,3.20
2014,10,22,16,35,1.60
2014,10,22,16,36,3.20
2014,10,22,16,37,3.20
2014,10,22,16,38,3.20
2014,10,22,16,39,4.80
2014,10,22,16,40,4.80
2014,10,22,16,41,1.60
2014,10,22,16,42,3.20
2014,10,22,16,43,3.20
2014,10,22,16,44,3.20
2014,10,22,16,45,1.60
2014,10,22,16,46,1.60
2014,10,22,16,47,1.60
2014,10,22,16,48,1.60
2014,10,22,16,49,3.20
2014,10,22,16,50,3.20
2014,10,22,16,51,3.20
2014,10,22,16,52,1.60
2014,10,22,16,56,1.60
2014,10,22,16,57,3.20
2014,10,22,16,58,3.20
2014,10,22,16,59,3.20
2014,10,22,17,02,1.60
2014,10,22,17,03,1.60
2014,10,22,17,04,3.20
2014,10,22,17,05,3.20
2014,10,22,17,06,4.80
2014,10,22,17,07,4.80
2014,10,22,17,08,4.80
2014,10,22,17,09,4.80
2014,10,22,17,10,4.80
2014,10,22,17,11,3.20
2014,10,22,17,12,3.20
2014,10,22,17,13,3.20
2014,10,22,17,14,3.20
2014,10,22,17,15,1.60
2014,10,22,17,16,1.60
2014,10,22,17,17,1.60
2014,10,22,17,18,1.60
2014,10,22,17,19,1.60
2014,10,22,17,20,1.60
2014,10,22,17,21,1.60
2014,10,22,17,22,3.20
2014,10,22,17,23,1.60
2014,10,22,17,24,4.80
2014,10,22,17,25,4.80
2014,10,22,17,26,4.80
2014,10,22,17,27,3.20
2014,10,22,17,28,3.20
2014,10,22,17,29,3.20
2014,10,22,17,30,3.20
2014,10,22,17,31,3.20
2014,10,22,17,32,3.20
2014,10,22,17,33,3.20
2014,10,22,17,34,1.60
2014,10,22,17,35,1.60
2014,10,22,17,36,1.60
2014,10,22,17,37,1.60
2014,10,22,17,38,3.20
2014,10,22,17,39,3.20
2014,10,22,17,40,3.20
2014,10,22,17,41,3.20
2014,10,22,17,42,1.60
2014,10,22,17,43,1.60
2014,10,22,17,44,1.60
2014,10,22,17,45,1.60
2014,10,22,17,46,3.20
2014,10,22,17,47,3.20
2014,10,22,17,48,3.20
2014,10,22,17,49,3.20
2014,10,22,17,50,3.20
2014,10,22,17,51,1.60
2014,10,22,17,52,3.20
2014,10,22,17,53,3.20
2014,10,22,17,54,3.20
2014,10,22,17,55,3.20
2014,10,22,17,56,1.60
2014,10,22,17,57,4.80
2014,10,22,17,58,3.20
2014,10,22,17,59,4.80
2014,10,22,18,00,3.20
2014,10,22,18,01,1.60
2014,10,22,18,02,4.80
2014,10,22,18,03,4.80
2014,10,22,18,04,3.20
2014,10,22,18,05,3.20
2014,10,22,18,06,3.20
2014,10,22,18,07,4.80
2014,10,22,18,08,3.20
2014,10,22,18,09,4.80
2014,10,22,18,10,3.20
2014,10,22,18,11,3.20
2014,10,22,18,12,3.20
2014,10,22,18,13,4.80
2014,10,22,18,14,4.80
2014,10,22,18,15,3.20
2014,10,22,18,16,1.60
2014,10,22,18,17,1.60
2014,10,22,18,20,1.60
2014,10,22,18,21,1.60
2014,10,22,18,22,3.20
2014,10,22,18,23,4.80
2014,10,22,18,24,3.20
2014,10,22,18,25,1.60
2014,10,22,18,26,3.20
2014,10,22,18,27,4.80
2014,10,22,18,28,6.40
2014,10,22,18,29,4.80
2014,10,22,18,30,4.80
2014,10,22,18,31,4.80
2014,10,22,18,32,4.80
2014,10,22,18,33,4.80
2014,10,22,18,34,4.80
2014,10,22,18,35,4.80
2014,10,22,18,36,6.40
2014,10,22,18,37,3.20
2014,10,22,18,38,4.80
2014,10,22,18,39,4.80
2014,10,22,18,40,3.20
2014,10,22,18,41,4.80
2014,10,22,18,42,3.20
2014,10,22,18,43,3.20
2014,10,22,18,44,3.20
2014,10,22,18,45,1.60
2014,10,22,18,46,1.60
2014,10,22,18,47,3.20
2014,10,22,18,48,1.60
2014,10,22,18,49,3.20
2014,10,22,18,50,4.80
2014,10,22,18,51,4.80
2014,10,22,18,52,4.80
2014,10,22,18,53,6.40
2014,10,22,18,54,4.80
2014,10,22,18,55,4.80
2014,10,22,18,56,4.80
2014,10,22,18,57,3.20
2014,10,22,18,58,3.20
2014,10,22,18,59,4.80
2014,10,22,19,00,1.60
2014,10,22,19,01,3.20
2014,10,22,19,02,3.20
2014,10,22,19,03,1.60
2014,10,22,19,04,3.20
2014,10,22,19,05,4.80
2014,10,22,19,06,3.20
2014,10,22,19,07,1.60
2014,10,22,19,08,3.20
2014,10,22,19,09,4.80
2014,10,22,19,10,3.20
2014,10,22,19,11,4.80
2014,10,22,19,12,3.20
2014,10,22,19,13,4.80
2014,10,22,19,14,4.80
2014,10,22,19,15,4.80
2014,10,22,19,16,6.40
2014,10,22,19,17,8.10
2014,10,22,19,18,4.80
2014,10,22,19,19,3.20
2014,10,22,19,20,4.80
2014,10,22,19,21,6.40
2014,10,22,19,22,4.80
2014,10,22,19,23,3.20
2014,10,22,19,24,1.60
2014,10,22,19,25,3.20
2014,10,22,19,26,3.20
2014,10,22,19,27,3.20
2014,10,22,19,28,6.40
2014,10,22,19,29,8.10
2014,10,22,19,30,8.10
2014,10,22,19,31,8.10
2014,10,22,19,32,9.60
2014,10,22,19,33,8.10
2014,10,22,19,34,6.40
2014,10,22,19,35,4.80
2014,10,22,19,36,3.20
2014,10,22,19,37,3.20
2014,10,22,19,38,4.80
2014,10,22,19,39,6.40
2014,10,22,19,40,6.40
2014,10,22,19,41,6.40
2014,10,22,19,42,4.80
2014,10,22,19,43,6.40
2014,10,22,19,44,12.90
2014,10,22,19,45,9.60
2014,10,22,19,46,6.40
2014,10,22,19,47,1.60
2014,10,22,19,48,3.20
2014,10,22,19,49,3.20
2014,10,22,19,50,3.20
2014,10,22,19,51,6.40
2014,10,22,19,52,4.80
2014,10,22,19,53,6.40
2014,10,22,19,54,6.40
2014,10,22,19,55,6.40
2014,10,22,19,56,4.80
2014,10,22,19,57,4.80
2014,10,22,19,58,4.80
2014,10,22,19,59,1.60
2014,10,22,20,00,1.60
2014,10,22,20,01,3.20
2014,10,22,20,02,3.20
2014,10,22,20,03,4.80
2014,10,22,20,04,4.80
2014,10,22,20,05,3.20
2014,10,22,20,06,8.10
2014,10,22,20,07,6.40
2014,10,22,20,08,6.40
2014,10,22,20,09,6.40
2014,10,22,20,10,8.10
2014,10,22,20,11,8.10
2014,10,22,20,12,4.80
2014,10,22,20,13,8.10
2014,10,22,20,14,9.60
2014,10,22,20,15,8.10
2014,10,22,20,16,12.90
2014,10,22,20,17,11.30
2014,10,22,20,18,11.30
2014,10,22,20,19,9.60
2014,10,22,20,20,8.10
2014,10,22,20,21,6.40
2014,10,22,20,22,6.40
2014,10,22,20,23,11.30
2014,10,22,20,24,11.30
2014,10,22,20,25,6.40
2014,10,22,20,26,6.40
2014,10,22,20,27,11.30
2014,10,22,20,28,11.30
2014,10,22,20,29,4.80
2014,10,22,20,30,4.80
2014,10,22,20,31,3.20
2014,10,22,20,32,9.60
2014,10,22,20,33,16.10
2014,10,22,20,34,14.50
2014,10,22,20,35,16.10
2014,10,22,20,36,9.60
2014,10,22,20,37,11.30
2014,10,22,20,38,6.40
2014,10,22,20,39,6.40
2014,10,22,20,40,11.30
2014,10,22,20,41,4.80
2014,10,22,20,42,8.10
2014,10,22,20,43,6.40
2014,10,22,20,44,6.40
2014,10,22,20,45,8.10
2014,10,22,20,46,6.40
2014,10,22,20,47,3.20
2014,10,22,20,48,1.60
2014,10,22,20,49,3.20
2014,10,22,20,50,3.20
2014,10,22,20,51,4.80